Location: Moscow
(55.7500°N, 37.5830°E)
Time: 06:36:35
(UTC+03:00)

A-11 Canister half - Pass Details

Date: 09 December 2021
Orbit: 1524 x 1684 km, 47.3° (Epoch: 17 January)

Event Time Altitude Azimuth Distance (km) Brightness Sun altitude
Exits shadow 02:41:33 29° 110° (ESE) 2,721 10.3 -48.2°
Drops below altitude 10° 02:45:55 10° 97° (E) 3,898 11.4 -47.7°
Sets 02:49:07 0° 93° (E) 4,867 12.1 -47.4°
